Location: *
(50.5492°N, 7.7469°E)
Time: 14:37:25
(UTC+00:00)

STARLINK-64 - Pass Details

Date: 21 October 2019
Orbit: 545 x 555 km, 53.0° (Epoch: 22 November)

Event Time Altitude Azimuth Distance (km) Brightness Sun altitude
Rises 17:09:43 0° 266° (W) 2,730 9.7 -7.7°
Reaches altitude 10° 17:11:58 10° 270° (W) 1,837 8.0 -8.0°
Maximum altitude 17:16:08 64° 353° (N) 619 3.9 -8.7°
Enters shadow 17:19:56 12° 74° (ENE) 1,703 5.5 -9.3°
